Preston, MN

12:38 PM CDT on July 22, 2017 (GMT -0500)
Preston

Weather History for KFKA - April, 2013

Change the Weather History Date:

Tuesday, April 23, 2013

  Actual Average (KRST) Record (KRST)
Temperature  
Mean Temperature 37 °F -  
Max Temperature 42 °F 59 °F 84 °F (1960)
Min Temperature 33 °F 37 °F 20 °F (1956)
Degree Days  
Heating Degree Days 28    
Moisture  
Dew Point 25 °F    
Average Humidity 65    
Maximum Humidity 83    
Minimum Humidity 46    
Precipitation  
Precipitation 0.00 in - - ()
Sea Level Pressure  
Sea Level Pressure 30.05 in    
Wind  
Wind Speed 14 mph (NNW)    
Max Wind Speed 20 mph    
Max Gust Speed 28 mph    
Visibility 10 miles    
Events      
Averages and records for this station are not official NWS values.
T = Trace of Precipitation, MM = Missing Value Source: NWS Daily Summary

Daily Weather History Graph

Daily Weather History Graph

Search for Another Location

Airport or City:

Trip Planner

Search our weather history database for the weather conditions in past years. The results will help you decide how hot, cold, wet, or windy it might be!

Date:

Astronomy

Apr. 23, 2013 Rise Set
Actual Time 6:12 AM CDT 8:02 PM CDT
Civil Twilight 5:41 AM CDT 8:32 PM CDT
Nautical Twilight 5:04 AM CDT 9:10 PM CDT
Astronomical Twilight 4:24 AM CDT 9:51 PM CDT
Moon 5:54 PM CDT (4/23) 4:45 AM CDT (4/23)
Length of Visible Light 14h 50m
Length of Day
13h 49m
Waxing Gibbous, 94% of the Moon is Illuminated
Apr 23
Waxing Gibbous
Apr 25
Full
May 2
Last Quarter
May 9
New
May 17
First Quarter

Hourly Weather History & Observations

Time (CDT) Temp. Windchill Dew Point Humidity Pressure Visibility Wind Dir Wind Speed Gust Speed Precip Events Conditions
12:14 AM 36.5 °F 27.4 °F 31.6 °F 83% 30.00 in 10.0 mi NNW 15.0 mph - N/A   Overcast
12:34 AM 36.0 °F 26.7 °F 30.9 °F 82% 30.01 in 7.0 mi NNW 15.0 mph 20.7 mph N/A   Overcast
12:54 AM 35.8 °F 28.3 °F 30.6 °F 81% 30.00 in 10.0 mi NNW 10.4 mph - N/A   Overcast
1:13 AM 35.1 °F 25.5 °F 29.7 °F 81% 29.99 in 10.0 mi North 15.0 mph 19.6 mph N/A   Overcast
1:34 AM 35.1 °F 24.8 °F 29.3 °F 80% 30.01 in 10.0 mi NNW 17.3 mph 23.0 mph N/A   Overcast
1:54 AM 35.1 °F 25.5 °F 29.1 °F 79% 30.01 in 10.0 mi NNW 15.0 mph 21.9 mph N/A   Overcast
2:13 AM 34.9 °F 24.9 °F 28.8 °F 78% 29.99 in 10.0 mi NNW 16.1 mph 20.7 mph N/A   Overcast
2:34 AM 34.7 °F 24.7 °F 28.4 °F 78% 30.01 in 10.0 mi NNW 16.1 mph 24.2 mph N/A   Overcast
2:54 AM 34.9 °F 23.9 °F 28.0 °F 76% 30.03 in 10.0 mi NNW 19.6 mph 27.6 mph N/A   Overcast
3:14 AM 34.9 °F 24.9 °F 27.9 °F 76% 30.01 in 10.0 mi NNW 16.1 mph 25.3 mph N/A   Overcast
3:34 AM 34.9 °F 25.7 °F 27.9 °F 76% 30.01 in 10.0 mi North 13.8 mph 24.2 mph N/A   Overcast
3:54 AM 34.9 °F 24.2 °F 27.9 °F 76% 30.01 in 10.0 mi NNW 18.4 mph 21.9 mph N/A   Overcast
4:14 AM 34.7 °F 25.9 °F 27.9 °F 76% 30.01 in 10.0 mi NNW 12.7 mph - N/A   Overcast
4:34 AM 34.7 °F 24.3 °F 27.7 °F 76% 30.02 in 10.0 mi NNW 17.3 mph 21.9 mph N/A   Overcast
4:54 AM 34.7 °F 24.0 °F 27.5 °F 75% 30.04 in 10.0 mi NNW 18.4 mph 23.0 mph N/A   Overcast
5:14 AM 34.7 °F 25.1 °F 27.5 °F 75% 30.04 in 10.0 mi North 15.0 mph 19.6 mph N/A   Overcast
5:35 AM 34.7 °F 25.1 °F 27.3 °F 74% 30.05 in 10.0 mi NNW 15.0 mph 23.0 mph N/A   Overcast
5:54 AM 34.7 °F 25.5 °F 27.1 °F 74% 30.05 in 10.0 mi NNW 13.8 mph 24.2 mph N/A   Overcast
6:14 AM 34.3 °F 24.6 °F 27.0 °F 74% 30.05 in 10.0 mi NNW 15.0 mph 21.9 mph N/A   Overcast
6:34 AM 34.3 °F 23.9 °F 26.6 °F 73% 30.05 in 10.0 mi NNW 17.3 mph 24.2 mph N/A   Overcast
6:54 AM 34.3 °F 24.6 °F 26.6 °F 73% 30.04 in 10.0 mi NNW 15.0 mph 20.7 mph N/A   Overcast
7:14 AM 34.3 °F 25.0 °F 26.4 °F 73% 30.05 in 10.0 mi North 13.8 mph 27.6 mph N/A   Overcast
7:34 AM 34.2 °F 24.4 °F 26.4 °F 73% 30.06 in 10.0 mi NNW 15.0 mph 21.9 mph N/A   Overcast
7:54 AM 34.2 °F 23.6 °F 26.1 °F 72% 30.06 in 10.0 mi NNW 17.3 mph 21.9 mph N/A   Overcast
8:14 AM 34.2 °F 24.4 °F 26.1 °F 72% 30.06 in 10.0 mi NNW 15.0 mph 20.7 mph N/A   Overcast
8:34 AM 34.0 °F 22.7 °F 25.7 °F 72% 30.05 in 10.0 mi North 19.6 mph 26.5 mph N/A   Overcast
8:54 AM 34.0 °F 23.0 °F 25.5 °F 71% 30.07 in 10.0 mi North 18.4 mph 26.5 mph N/A   Overcast
9:14 AM 34.2 °F 24.4 °F 25.7 °F 71% 30.07 in 10.0 mi North 15.0 mph 20.7 mph N/A   Overcast
9:34 AM 34.2 °F 23.6 °F 25.7 °F 71% 30.07 in 10.0 mi North 17.3 mph 23.0 mph N/A   Overcast
9:54 AM 34.2 °F 24.8 °F 25.7 °F 71% 30.07 in 10.0 mi North 13.8 mph 20.7 mph N/A   Overcast
10:14 AM 34.3 °F 24.2 °F 26.1 °F 72% 30.07 in 10.0 mi NNW 16.1 mph 21.9 mph N/A   Overcast
10:34 AM 34.5 °F 24.8 °F 26.1 °F 71% 30.09 in 10.0 mi North 15.0 mph 19.6 mph N/A   Overcast
10:54 AM 34.7 °F 24.0 °F 25.9 °F 70% 30.08 in 10.0 mi North 18.4 mph 24.2 mph N/A   Overcast
11:14 AM 34.7 °F 25.1 °F 25.7 °F 70% 30.08 in 10.0 mi North 15.0 mph 20.7 mph N/A   Overcast
11:34 AM 35.1 °F 25.2 °F 25.9 °F 69% 30.07 in 10.0 mi North 16.1 mph 21.9 mph N/A   Overcast
11:54 AM 35.8 °F 26.5 °F 26.4 °F 69% 30.07 in 10.0 mi North 15.0 mph 20.7 mph N/A   Overcast
12:14 PM 36.9 °F 28.2 °F 26.8 °F 67% 30.08 in 10.0 mi NNW 13.8 mph 18.4 mph N/A   Overcast
12:54 PM 38.1 °F 31.2 °F 27.1 °F 65% 30.07 in 10.0 mi North 10.4 mph - N/A   Overcast
1:14 PM 38.1 °F 29.5 °F 26.8 °F 64% 30.05 in 10.0 mi NNW 15.0 mph 21.9 mph N/A   Overcast
1:34 PM 38.8 °F 31.6 °F 26.1 °F 60% 30.07 in 10.0 mi North 11.5 mph - N/A   Overcast
1:54 PM 39.4 °F 30.7 °F 26.8 °F 61% 30.05 in 10.0 mi NNW 16.1 mph - N/A   Overcast
2:14 PM 39.2 °F 31.2 °F 25.2 °F 57% 30.06 in 10.0 mi NNW 13.8 mph 19.6 mph N/A   Overcast
2:34 PM 39.2 °F 30.5 °F 24.6 °F 56% 30.05 in 10.0 mi NNW 16.1 mph 19.6 mph N/A   Overcast
2:54 PM 39.7 °F 31.2 °F 24.4 °F 54% 30.05 in 10.0 mi NNW 16.1 mph 20.7 mph N/A   Overcast
3:14 PM 41.4 °F 34.0 °F 24.6 °F 51% 30.05 in 10.0 mi North 13.8 mph 20.7 mph N/A   Mostly Cloudy
3:34 PM 41.0 °F 33.1 °F 23.0 °F 49% 30.04 in 10.0 mi North 15.0 mph - N/A   Mostly Cloudy
3:54 PM 40.8 °F 32.9 °F 23.4 °F 50% 30.04 in 10.0 mi NNW 15.0 mph 19.6 mph N/A   Overcast
4:14 PM 40.5 °F 33.2 °F 23.5 °F 51% 30.04 in 10.0 mi NNW 12.7 mph 17.3 mph N/A   Overcast
4:34 PM 41.2 °F 33.4 °F 22.8 °F 48% 30.04 in 10.0 mi North 15.0 mph 20.7 mph N/A   Mostly Cloudy
4:54 PM 41.0 °F 32.2 °F 21.9 °F 47% 30.04 in 10.0 mi NW 18.4 mph 21.9 mph N/A   Overcast
5:14 PM 40.8 °F 33.7 °F 21.6 °F 46% 30.04 in 10.0 mi NNW 12.7 mph 20.7 mph N/A   Mostly Cloudy
5:34 PM 40.5 °F 33.2 °F 23.4 °F 51% 30.04 in 10.0 mi North 12.7 mph 17.3 mph N/A   Mostly Cloudy
5:54 PM 41.0 °F 33.5 °F 22.8 °F 48% 30.03 in 10.0 mi NNW 13.8 mph 18.4 mph N/A   Overcast
6:14 PM 40.1 °F 32.7 °F 21.4 °F 47% 30.04 in 10.0 mi NNW 12.7 mph - N/A   Overcast
6:34 PM 39.7 °F 33.2 °F 21.6 °F 48% 30.03 in 10.0 mi North 10.4 mph 17.3 mph N/A   Overcast
6:54 PM 39.2 °F 31.6 °F 20.7 °F 47% 30.04 in 10.0 mi North 12.7 mph 18.4 mph N/A   Overcast
7:14 PM 39.2 °F 32.0 °F 19.8 °F 46% 30.04 in 10.0 mi NNW 11.5 mph 18.4 mph N/A   Mostly Cloudy
7:34 PM 38.7 °F 31.4 °F 19.6 °F 46% 30.04 in 10.0 mi NNW 11.5 mph 17.3 mph N/A   Scattered Clouds
7:54 PM 37.9 °F 31.5 °F 20.3 °F 49% 30.04 in 10.0 mi North 9.2 mph - N/A   Scattered Clouds
8:14 PM 37.6 °F 32.3 °F 20.5 °F 50% 30.05 in 10.0 mi NNW 6.9 mph - N/A   Mostly Cloudy
8:34 PM 36.9 °F 31.4 °F 21.0 °F 53% 30.05 in 10.0 mi NNW 6.9 mph - N/A   Mostly Cloudy
8:54 PM 36.3 °F 31.6 °F 21.6 °F 55% 30.05 in 10.0 mi NNW 5.8 mph - N/A   Mostly Cloudy
9:14 PM 35.8 °F 30.9 °F 21.9 °F 57% 30.06 in 10.0 mi NW 5.8 mph - N/A   Scattered Clouds
9:34 PM 35.6 °F 29.2 °F 21.9 °F 58% 30.06 in 10.0 mi NW 8.1 mph - N/A   Clear
9:54 PM 35.4 °F 28.4 °F 22.1 °F 58% 30.06 in 10.0 mi NW 9.2 mph - N/A   Clear
10:14 PM 34.9 °F 27.7 °F 22.1 °F 60% 30.07 in 10.0 mi NW 9.2 mph - N/A   Clear
10:34 PM 34.7 °F 28.1 °F 21.9 °F 60% 30.06 in 10.0 mi NW 8.1 mph - N/A   Clear
10:54 PM 33.8 °F 26.4 °F 22.6 °F 64% 30.06 in 10.0 mi NW 9.2 mph - N/A   Clear
11:15 PM 33.8 °F 25.8 °F 22.1 °F 62% 30.06 in 10.0 mi NW 10.4 mph - N/A   Clear
11:34 PM 33.4 °F 25.9 °F 21.9 °F 63% 30.05 in 10.0 mi NW 9.2 mph - N/A   Clear
11:54 PM 33.1 °F 25.5 °F 21.7 °F 63% 30.05 in 10.0 mi NW 9.2 mph - N/A   Clear